Location: Pinhey's Point
(45.4411°N, 75.9539°W)
Time: 07:03:52
(UTC-04:00)

Iridium 65 - Visible Passes

Search period start: 30 May 2017 00:00
Search period end: 09 June 2017 00:00
Orbit: 776 x 779 km, 86.4° (Epoch: 29 May)

Date Brightness Start Highest point End Pass type
(mag) Time Alt. Az. Time Alt. Az. Time Alt. Az.
30 May 5.4 00:05:25 49° S 00:06:51 81° E 00:12:05 10° N visible
30 May 7.8 01:45:53 11° W 01:48:16 14° WNW 01:50:53 10° NW visible
30 May 6.0 23:31:50 35° SE 23:33:25 45° E 23:38:22 10° NNE visible
31 May 7.2 01:12:18 19° WSW 01:14:21 24° WNW 01:18:32 10° NNW visible
31 May 6.8 22:58:15 21° ESE 23:00:06 26° E 23:04:22 10° NNE visible
01 Jun 6.4 00:38:42 30° SW 00:40:35 40° W 00:45:31 10° N visible
01 Jun 7.4 22:24:39 12° ESE 22:26:54 15° ENE 22:29:47 10° NE visible
02 Jun 5.6 00:05:06 40° SSW 00:06:57 72° W 00:12:11 10° N visible
02 Jun 5.6 23:31:29 37° SSE 23:33:26 65° E 23:38:37 10° N visible
03 Jun 7.7 01:11:57 12° WSW 01:14:40 17° WNW 01:18:04 10° NNW visible
03 Jun 6.3 22:57:52 25° SE 23:00:03 36° E 23:04:48 10° NNE visible
04 Jun 7.0 00:38:20 20° WSW 00:40:49 29° WNW 00:45:21 10° NNW visible
04 Jun 7.0 22:24:14 15° ESE 22:26:46 21° E 22:30:37 10° NNE visible
05 Jun 6.1 00:04:41 29° SW 00:07:06 51° W 00:12:12 10° N visible
05 Jun 7.6 21:51:46 10° E 21:53:38 12° ENE 21:55:31 10° NE visible
05 Jun 5.5 23:31:03 32° S 23:33:30 89° WSW 23:38:46 10° N visible
06 Jun 7.9 01:12:59 10° W 01:15:02 12° WNW 01:17:06 10° NW visible
06 Jun 5.8 22:57:24 26° SSE 23:00:03 51° E 23:05:06 10° NNE visible
07 Jun 7.5 00:37:51 13° WSW 00:41:05 21° WNW 00:45:02 10° NNW visible
07 Jun 6.6 22:23:45 17° SE 22:26:42 29° E 22:31:10 10° NNE visible
08 Jun 6.7 00:04:11 19° SW 00:07:18 36° W 00:12:06 10° NNW visible
08 Jun 7.3 21:50:13 10° ESE 21:53:29 17° ENE 21:56:45 10° NE visible
08 Jun 5.8 23:30:31 24° SSW 23:33:38 64° W 23:38:50 10° N visible
